Location: Augirein
(42.9320°N, 0.9181°E)
Time: 19:15:31
(UTC+00:00)

Okean 3 Rocket - Pass Details

Date: 20 June 2021
Orbit: 615 x 644 km, 82.5° (Epoch: 23 July)

Event Time Altitude Azimuth Distance (km) Brightness Sun altitude
Exits shadow 03:09:57 14° 215° (SW) 1,745 5.2 -10.3°
Maximum altitude 03:13:29 42° 283° (WNW) 889 4.1 -9.8°
Drops below altitude 10° 03:17:39 10° 354° (N) 1,987 6.7 -9.3°
Sets 03:19:59 0° 2° (N) 2,897 7.8 -9.0°
